Dan L — WDG4449 — position and weather

sailwx.info

Track history (hours):
 
Tides and Currents Weather Stations Pressure Air Temp Water Temp Dewpoint Dewpoint Depression Visibility Wind Speed Wind Dir Waves Ship Positions

Dan L

Owner: Enterprise Marine Services, LLC, San Antonio, TX. More information available from US FCC via Universal Licensing System and Coast Guard Vessel Documentation Center.

Last reported at 2017-Sep-22 01:13 UTC. Time now 2017-Sep-26 02:11 UTC.
Position N 31°58' W 091°11'.

Length 322 m; draft 3 m.

Type: Tug. MMSI: 367536660.

Date/timePositionNaut miles runAvg speedWind from/ knotsBaromVisibWave heightAir tempDewpointWater temp
2017-Sep-22 01:13N 31°58' W 091°11'5 8.1
2017-Sep-22 00:35N 31°60' W 091°06'1 8.6
2017-Sep-22 00:30N 32°00' W 091°05'5 7.9
2017-Sep-21 23:54N 32°05' W 091°04'3 7.7
2017-Sep-21 23:30N 32°07' W 091°07'2 4.9
2017-Sep-21 23:00N 32°08' W 091°04'3 6.1
2017-Sep-21 22:30N 32°08' W 091°00'4 8.9
2017-Sep-21 22:00N 32°13' W 090°59'4 8.7
2017-Sep-21 21:30N 32°17' W 090°57'4 8.1
2017-Sep-21 21:00N 32°20' W 090°54'3 6.0
2017-Sep-21 20:31N 32°21' W 090°57'2 4.9
2017-Sep-21 20:00N 32°22' W 091°00'4 7.6
2017-Sep-21 19:30N 32°25' W 091°00'4 8.6
2017-Sep-21 19:00N 32°27' W 091°05'4 7.6
2017-Sep-21 18:26N 32°31' W 091°06'4 7.8
2017-Sep-21 17:58N 32°35' W 091°07'5 8.2
2017-Sep-21 17:22N 32°40' W 091°08'  
Track history (hours):
 
Tides and Currents Weather Stations Pressure Air Temp Water Temp Dewpoint Dewpoint Depression Visibility Wind Speed Wind Dir Waves Ship Positions

Dan L

Owner: Enterprise Marine Services, LLC, San Antonio, TX. More information available from US FCC via Universal Licensing System and Coast Guard Vessel Documentation Center.

Last reported at 2017-Sep-22 01:13 UTC. Time now 2017-Sep-26 02:11 UTC.
Position N 31°58' W 091°11'.

Length 322 m; draft 3 m.

Type: Tug. MMSI: 367536660.

Date/timePositionNaut miles runAvg speedWind from/ knotsBaromVisibWave heightAir tempDewpointWater temp
2017-Sep-22 01:13N 31°58' W 091°11'5 8.1
2017-Sep-22 00:35N 31°60' W 091°06'1 8.6
2017-Sep-22 00:30N 32°00' W 091°05'5 7.9
2017-Sep-21 23:54N 32°05' W 091°04'3 7.7
2017-Sep-21 23:30N 32°07' W 091°07'2 4.9
2017-Sep-21 23:00N 32°08' W 091°04'3 6.1
2017-Sep-21 22:30N 32°08' W 091°00'4 8.9
2017-Sep-21 22:00N 32°13' W 090°59'4 8.7
2017-Sep-21 21:30N 32°17' W 090°57'4 8.1
2017-Sep-21 21:00N 32°20' W 090°54'3 6.0
2017-Sep-21 20:31N 32°21' W 090°57'2 4.9
2017-Sep-21 20:00N 32°22' W 091°00'4 7.6
2017-Sep-21 19:30N 32°25' W 091°00'4 8.6
2017-Sep-21 19:00N 32°27' W 091°05'4 7.6
2017-Sep-21 18:26N 32°31' W 091°06'4 7.8
2017-Sep-21 17:58N 32°35' W 091°07'5 8.2
2017-Sep-21 17:22N 32°40' W 091°08'  

Dump ship's entire track history